Погода в Коростышеве

Украина / Житомирская область     50°19′10″N   29°03′34″E
темп.,
°C
ветер,
м/с
пор.,
м/с
влажн.,
%
обл.,
%
осадки,
мм/ч
давл.,
гПа
погр.,
м
4 августа, ср
ср400:00+17зсз22620 0.0 101627
03:00+15з11644 0.0 101711
06:00+14с117095 0.0 101710
09:00+21вюв225183 0.0 1018383
12:00+25ю3439100 0.0 10171787
15:00+27ююз3437100 0.0 10162552
18:00+23ююв365548 0.1 1015176
21:00+17ююв3685100 1.6 1015102
5 августа, чт
чт500:00+17юв4895100 7.6 1016246
03:00+16ююв3896100 7.6 1015161
06:00+16ююв3995100 0.0 1013211
09:00+18ю3991100 0.0 1013333
12:00+25ю455798 0.0 10111087
15:00+28ю4548100 0.1 10101430
18:00+28ю354835 0.1 10091875
21:00+22юв34707 0.1 100764
6 августа, пт
пт600:00+19вюв4991100 2.2 1007174
03:00+18ююз41191100 4.0 1004509
06:00+17ю2594100 0.0 1005151
09:00+21ю41086100 0.5 1004526
12:00+26ю5765100 0.3 10041060
15:00+24ю71176100 2.1 10051029
18:00+22ююз4880100 0.7 1005729
21:00+18ю3894100 2.4 1006259
7 августа, сб
сб700:00+18з389781 0.2 1006223
03:00+16сз269753 0.2 1008177
06:00+14сз259670 0.0 1009162
09:00+17сз458455 0.0 1010571
12:00+21зсз456488 0.0 1011922
15:00+23сз4453100 0.0 10111284
18:00+23сз345269 0.0 10121372
21:00+18ссз35731 0.0 101386
8 августа, вс
вс800:00+15с25840 0.0 101488
03:00+14с22910 0.0 101531
06:00+13с22930 0.0 101618
09:00+19с22650 0.0 1016391
12:00+24с22420 0.0 10161297
15:00+26ссз22340 0.0 10151580
18:00+26сз22350 0.0 10151344
21:00+19ссз115596 0.0 101611